Frederick, MD

5:59 PM EDT on March 26, 2017 (GMT -0400)
Frederick Municipal

Weather History for KFDK - September, 2013

Change the Weather History Date:

Wednesday, September 18, 2013

  Actual Average (KHGR) Record (KHGR)
Temperature  
Mean Temperature 54 °F -  
Max Temperature 71 °F 73 °F 85 °F (2015)
Min Temperature 37 °F 54 °F 43 °F (2013)
Degree Days  
Heating Degree Days 11    
Growing Degree Days 4 (Base 50)    
Moisture  
Dew Point 44 °F    
Average Humidity 86    
Maximum Humidity 100    
Minimum Humidity 41    
Precipitation  
Precipitation 0.00 in - - ()
Sea Level Pressure  
Sea Level Pressure 30.32 in    
Wind  
Wind Speed 1 mph (SSE)    
Max Wind Speed 6 mph    
Max Gust Speed -    
Visibility 8 miles    
Events Snow    
Averages and records for this station are not official NWS values.
T = Trace of Precipitation, MM = Missing Value Source: NWS Daily Summary

Daily Weather History Graph

Daily Weather History Graph

Search for Another Location

Airport or City:

Trip Planner

Search our weather history database for the weather conditions in past years. The results will help you decide how hot, cold, wet, or windy it might be!

Date:

Astronomy

Sep. 18, 2013 Rise Set
Actual Time 6:53 AM EDT 7:12 PM EDT
Civil Twilight 6:26 AM EDT 7:39 PM EDT
Nautical Twilight 5:55 AM EDT 8:10 PM EDT
Astronomical Twilight 5:22 AM EDT 8:43 PM EDT
Moon 6:34 PM EDT (9/18) 5:53 AM EDT (9/18)
Length of Visible Light 13h 12m
Length of Day
12h 19m
Waxing Gibbous, 99% of the Moon is Illuminated
Sep 18
Waxing Gibbous
Sep 19
Full
Sep 26
Last Quarter
Oct 4
New
Oct 11
First Quarter

Hourly Weather History & Observations

Time (EDT) Temp. Dew Point Humidity Pressure Visibility Wind Dir Wind Speed Gust Speed Precip Events Conditions
12:00 AM 42.8 °F 42.8 °F 100% 30.38 in 10.0 mi Calm Calm - N/A   Clear
12:20 AM 42.8 °F 42.8 °F 100% 30.38 in 10.0 mi Calm Calm - N/A   Clear
12:40 AM 41.0 °F 41.0 °F 100% 30.39 in 10.0 mi Calm Calm - N/A   Clear
1:00 AM 42.8 °F 42.8 °F 100% 30.38 in 10.0 mi Calm Calm - N/A   Unknown
1:20 AM 41.0 °F 41.0 °F 100% 30.38 in 5.0 mi Calm Calm - N/A   Unknown
1:40 AM 41.0 °F 41.0 °F 100% 30.38 in 7.0 mi Calm Calm - N/A   Unknown
2:00 AM 41.0 °F 41.0 °F 100% 30.38 in 7.0 mi Calm Calm - N/A   Clear
2:20 AM 41.0 °F 41.0 °F 100% 30.38 in 10.0 mi Calm Calm - N/A   Clear
2:40 AM 41.0 °F 41.0 °F 100% 30.37 in 5.0 mi Calm Calm - N/A   Unknown
3:00 AM 39.2 °F 39.2 °F 100% 30.37 in 10.0 mi Calm Calm - N/A   Unknown
3:20 AM 41.0 °F 41.0 °F 100% 30.37 in 0.5 mi Calm Calm - N/A   Unknown
3:40 AM 41.0 °F 41.0 °F 100% 30.37 in 7.0 mi Calm Calm - N/A   Unknown
4:00 AM 41.0 °F 41.0 °F 100% 30.37 in 7.0 mi Calm Calm - N/A   Unknown
4:20 AM 39.2 °F 39.2 °F 100% 30.37 in 1.0 mi Calm Calm - N/A   Unknown
4:40 AM 39.2 °F 39.2 °F 100% 30.37 in 7.0 mi Calm Calm - N/A   Unknown
5:00 AM 39.2 °F 39.2 °F 100% 30.37 in 1.8 mi Calm Calm - N/A   Unknown
5:20 AM 41.0 °F 41.0 °F 100% 30.36 in 1.5 mi Calm Calm - N/A   Unknown
5:40 AM 37.4 °F 37.4 °F 100% 30.36 in 1.8 mi Calm Calm - N/A Snow Light Snow
6:00 AM 37.4 °F 37.4 °F 100% 30.37 in 2.5 mi Calm Calm - N/A   Clear
6:20 AM 37.4 °F 37.4 °F 100% 30.37 in 0.8 mi Calm Calm - N/A Snow Light Snow
6:40 AM 37.4 °F 37.4 °F 100% 30.37 in 1.0 mi Calm Calm - N/A Snow Light Snow
6:50 AM 39.2 °F 39.2 °F 100% 30.37 in 10.0 mi Calm Calm - N/A   Clear
7:59 AM 42.8 °F 42.8 °F 100% 30.37 in 10.0 mi Calm Calm - N/A   Clear
8:59 AM 50.0 °F 46.4 °F 87% 30.37 in 10.0 mi Calm Calm - N/A   Clear
9:45 AM 55.4 °F 50.0 °F 82% 30.37 in 10.0 mi Calm Calm - N/A   Clear
10:45 AM 62.6 °F 51.8 °F 68% 30.36 in 10.0 mi South 3.5 mph - N/A   Scattered Clouds
11:55 AM 66.2 °F 48.2 °F 52% 30.34 in 10.0 mi WNW 4.6 mph - N/A   Clear
1:47 PM 69.8 °F 48.2 °F 46% 30.29 in 10.0 mi SSE 3.5 mph - N/A   Clear
2:47 PM 71.6 °F 46.4 °F 41% 30.27 in 10.0 mi South 5.8 mph - N/A   Clear
3:50 PM 71.6 °F 46.4 °F 41% 30.24 in 10.0 mi South 5.8 mph - N/A   Clear
4:47 PM 71.6 °F 48.2 °F 43% 30.23 in 10.0 mi SSW 5.8 mph - N/A   Mostly Cloudy
5:46 PM 68.0 °F 48.2 °F 49% 30.22 in 10.0 mi Calm Calm - N/A   Mostly Cloudy
6:46 PM 64.4 °F 50.0 °F 59% 30.22 in 10.0 mi Calm Calm - N/A   Mostly Cloudy
7:56 PM 57.2 °F 50.0 °F 77% 30.22 in 10.0 mi Variable 3.5 mph - N/A   Mostly Cloudy
9:00 PM 57.2 °F 48.2 °F 72% 30.23 in 10.0 mi ESE 3.5 mph - N/A   Clear
9:20 PM 57.2 °F 48.2 °F 72% 30.24 in 10.0 mi ESE 3.5 mph - N/A   Clear
9:40 PM 53.6 °F 48.2 °F 82% 30.24 in 10.0 mi Calm Calm - N/A   Clear
10:00 PM 55.4 °F 48.2 °F 77% 30.23 in 10.0 mi Calm Calm - N/A   Clear
10:20 PM 55.4 °F 48.2 °F 77% 30.24 in 10.0 mi Calm Calm - N/A   Clear
10:40 PM 53.6 °F 50.0 °F 88% 30.24 in 10.0 mi Calm Calm - N/A   Clear
11:00 PM 51.8 °F 50.0 °F 94% 30.24 in 10.0 mi Calm Calm - N/A   Clear
11:20 PM 51.8 °F 50.0 °F 94% 30.23 in 10.0 mi East 3.5 mph - N/A   Clear
11:40 PM 50.0 °F 50.0 °F 100% 30.23 in 10.0 mi Calm Calm - N/A   Clear